User: anonymous   Login
Location: Broad Creek
(39.7000°N, 76.2570°W)
Time: 19:33:39
(UTC-05:00)
Language:

ETS-7 - Orbit

View from above orbital plane
View from above orbital plane
View from above satellite
View from above satellite

Ground track
Ground track

The orbit data is extracted from the following two-line orbital elements,

1 25064U 97074B   15058.36685281  .00036309  00000-0  38158-3 0  9991
2 25064 034.9577 024.2782 0005066 291.3364 200.6752 15.63239673960905
Epoch (UTC): 27 February 2015 08:48:16
Eccentricity: 0.0005066
inclination: 34.9577°
perigee height: 375 km
apogee height: 382 km
right ascension of ascending node: 24.2782°
argument of perigee: 291.3364°
revolutions per day: 15.63239673
mean anomaly at epoch: 200.6752°
orbit number at epoch: 96090

The dashed part of the orbit path shows where the satellite is in the earth's shadow,  

DLR